World > North America > United States > Michigan

Hourly Caledonia, MI Regional Weather

Feedback E-mail the Weather

Quick WX

Caledonia, MI Weather Maps

°F °C°F °C
Caledonia Weather Map
UTC Time: 7/6/2022, 01:34
Your Time:

Caledonia, MI Regional Weather

Expires:202207060200;;756474
ASUS43 KDTX 060110
RWRMI 
MICHIGAN HOURLY REGIONAL WEATHER ROUNDUP
NATIONAL WEATHER SERVICE DETROIT/PONTIAC MI
900 PM EDT TUE JUL 05 2022

NOTE: "FAIR" INDICATES FEW OR NO CLOUDS BELOW 12,000 FEET WITH NO
SIGNIFICANT WEATHER AND/OR OBSTRUCTION TO VISIBILITY.


MIZ043>046-050>051-056>058-064>065-071>073-077>080-060200-
SOUTHWEST LOWER MICHIGAN
  
CITY           SKY/WX    TMP DP  RH WIND       PRES   REMARKS
BATTLE CREEK   MOCLDY    83  70  64 N7        29.84F                  
BENTON HARBOR  CLOUDY    78  72  81 NW3       29.83F                  
BIG RAPIDS     PTCLDY    78  66  68 N5        29.87S                  
COLDWATER      MOCLDY    82  77  86 S10G17    29.85S HX  90           
FREMONT        FAIR      76  66  71 N3        29.86F                  
HOLLAND        MOCLDY    79  65  62 VRB5      29.84F                  
GRAND RAPIDS   MOCLDY    80  65  59 NW5       29.85S                  
IONIA          FAIR      81  68  65 NW3       29.83F                  
KALAMAZOO      CLOUDY    85  67  54 NE3       29.83F                  
LUDINGTON      PTCLDY    71  64  78 CALM      29.86F                  
MARSHALL       PTCLDY    81  72  72 CALM      29.84S                  
MOUNT PLEASANT PTCLDY    80  65  59 N3        29.86R                  
MUSKEGON       MOCLDY    81  65  58 N9        29.86S                  
SOUTH HAVEN    MOCLDY    75  70  85 N3        29.83F                  
$$

SKY/WX - Weather  TMP - Temperature  DP - Dew Point  RH - Humidity
WIND - Wind Direction/Speed PRES - Barometric Pressure VSB - Visibility
WCI - Wind Chill Index E13G22 Wind - East Wind 13 mph/Gusts of 22 mph

Trending Headlines

Caledonia Radar Loop



Caledonia Quick Facts


National Two Day Weather Forecast


E-mail the Caledonia Weather Forecast

Voice your opinion or tell us about page issues...